Year,Month,Day,Hour,Minute,Value (Times are PST for temperature in C)
2018,06,17,00,00,15.60
2018,06,17,00,01,15.60
2018,06,17,00,02,15.60
2018,06,17,00,03,15.60
2018,06,17,00,04,15.60
2018,06,17,00,05,15.60
2018,06,17,00,06,15.50
2018,06,17,00,07,15.50
2018,06,17,00,08,15.50
2018,06,17,00,09,15.50
2018,06,17,00,10,15.50
2018,06,17,00,11,15.50
2018,06,17,00,12,15.50
2018,06,17,00,13,15.50
2018,06,17,00,14,15.50
2018,06,17,00,15,15.50
2018,06,17,00,16,15.40
2018,06,17,00,17,15.40
2018,06,17,00,18,15.40
2018,06,17,00,19,15.40
2018,06,17,00,20,15.30
2018,06,17,00,21,15.30
2018,06,17,00,22,15.30
2018,06,17,00,23,15.30
2018,06,17,00,24,15.30
2018,06,17,00,25,15.30
2018,06,17,00,26,15.30
2018,06,17,00,27,15.30
2018,06,17,00,28,15.30
2018,06,17,00,29,15.30
2018,06,17,00,30,15.30
2018,06,17,00,31,15.20
2018,06,17,00,32,15.20
2018,06,17,00,33,15.20
2018,06,17,00,34,15.20
2018,06,17,00,35,15.20
2018,06,17,00,36,15.20
2018,06,17,00,37,15.10
2018,06,17,00,38,15.10
2018,06,17,00,39,15.10
2018,06,17,00,40,15.10
2018,06,17,00,41,15.00
2018,06,17,00,42,15.00
2018,06,17,00,43,14.90
2018,06,17,00,44,14.90
2018,06,17,00,45,14.90
2018,06,17,00,46,14.90
2018,06,17,00,47,14.90
2018,06,17,00,48,14.90
2018,06,17,00,49,14.90
2018,06,17,00,50,14.90
2018,06,17,00,51,14.90
2018,06,17,00,52,14.90
2018,06,17,00,53,14.90
2018,06,17,00,54,14.90
2018,06,17,00,55,14.90
2018,06,17,00,56,14.90
2018,06,17,00,57,14.80
2018,06,17,00,58,14.80
2018,06,17,00,59,14.80
2018,06,17,01,00,14.80
2018,06,17,01,01,14.80
2018,06,17,01,02,14.80
2018,06,17,01,03,14.80
2018,06,17,01,04,14.80
2018,06,17,01,05,14.70
2018,06,17,01,06,14.70
2018,06,17,01,07,14.70
2018,06,17,01,08,14.70
2018,06,17,01,09,14.60
2018,06,17,01,10,14.60
2018,06,17,01,11,14.60
2018,06,17,01,12,14.60
2018,06,17,01,13,14.60
2018,06,17,01,14,14.60
2018,06,17,01,15,14.50
2018,06,17,01,16,14.50
2018,06,17,01,17,14.50
2018,06,17,01,18,14.50
2018,06,17,01,19,14.50
2018,06,17,01,20,14.50
2018,06,17,01,21,14.50
2018,06,17,01,22,14.50
2018,06,17,01,23,14.50
2018,06,17,01,24,14.40
2018,06,17,01,25,14.40
2018,06,17,01,26,14.40
2018,06,17,01,27,14.40
2018,06,17,01,28,14.40
2018,06,17,01,29,14.40
2018,06,17,01,30,14.30
2018,06,17,01,31,14.30
2018,06,17,01,32,14.30
2018,06,17,01,33,14.30
2018,06,17,01,34,14.30
2018,06,17,01,35,14.30
2018,06,17,01,36,14.30
2018,06,17,01,37,14.30
2018,06,17,01,38,14.30
2018,06,17,01,39,14.30
2018,06,17,01,40,14.30
2018,06,17,01,41,14.30
2018,06,17,01,42,14.30
2018,06,17,01,43,14.30
2018,06,17,01,44,14.30
2018,06,17,01,45,14.30
2018,06,17,01,46,14.30
2018,06,17,01,47,14.30
2018,06,17,01,48,14.30
2018,06,17,01,49,14.30
2018,06,17,01,50,14.30
2018,06,17,01,51,14.30
2018,06,17,01,52,14.30
2018,06,17,01,53,14.30
2018,06,17,01,54,14.30
2018,06,17,01,55,14.30
2018,06,17,01,56,14.30
2018,06,17,01,57,14.40
2018,06,17,01,58,14.40
2018,06,17,01,59,14.40
2018,06,17,02,00,14.40
2018,06,17,02,01,14.40
2018,06,17,02,02,14.40
2018,06,17,02,03,14.30
2018,06,17,02,04,14.30
2018,06,17,02,05,14.30
2018,06,17,02,06,14.30
2018,06,17,02,07,14.30
2018,06,17,02,08,14.30
2018,06,17,02,09,14.30
2018,06,17,02,10,14.30
2018,06,17,02,11,14.30
2018,06,17,02,12,14.30
2018,06,17,02,13,14.30
2018,06,17,02,14,14.30
2018,06,17,02,15,14.30
2018,06,17,02,16,14.30
2018,06,17,02,17,14.30
2018,06,17,02,18,14.30
2018,06,17,02,19,14.30
2018,06,17,02,20,14.30
2018,06,17,02,21,14.30
2018,06,17,02,22,14.30
2018,06,17,02,23,14.30
2018,06,17,02,24,14.30
2018,06,17,02,25,14.30
2018,06,17,02,26,14.30
2018,06,17,02,27,14.30
2018,06,17,02,28,14.30
2018,06,17,02,29,14.30
2018,06,17,02,30,14.30
2018,06,17,02,31,14.30
2018,06,17,02,32,14.20
2018,06,17,02,33,14.20
2018,06,17,02,34,14.20
2018,06,17,02,35,14.20
2018,06,17,02,36,14.20
2018,06,17,02,37,14.20
2018,06,17,02,38,14.10
2018,06,17,02,39,14.10
2018,06,17,02,40,14.10
2018,06,17,02,41,14.10
2018,06,17,02,42,14.10
2018,06,17,02,43,14.00
2018,06,17,02,44,14.00
2018,06,17,02,45,14.00
2018,06,17,02,46,13.90
2018,06,17,02,47,13.90
2018,06,17,02,48,13.90
2018,06,17,02,49,13.90
2018,06,17,02,50,13.80
2018,06,17,02,51,13.80
2018,06,17,02,52,13.80
2018,06,17,02,53,13.80
2018,06,17,02,54,13.80
2018,06,17,02,55,13.80
2018,06,17,02,56,13.80
2018,06,17,02,57,13.80
2018,06,17,02,58,13.80
2018,06,17,02,59,13.70
2018,06,17,03,00,13.70
2018,06,17,03,01,13.70
2018,06,17,03,02,13.70
2018,06,17,03,03,13.70
2018,06,17,03,04,13.70
2018,06,17,03,05,13.70
2018,06,17,03,06,13.60
2018,06,17,03,07,13.60
2018,06,17,03,08,13.60
2018,06,17,03,09,13.60
2018,06,17,03,10,13.60
2018,06,17,03,11,13.60
2018,06,17,03,12,13.60
2018,06,17,03,13,13.60
2018,06,17,03,14,13.60
2018,06,17,03,15,13.50
2018,06,17,03,16,13.50
2018,06,17,03,17,13.50
2018,06,17,03,18,13.40
2018,06,17,03,19,13.40
2018,06,17,03,20,13.40
2018,06,17,03,21,13.40
2018,06,17,03,22,13.40
2018,06,17,03,23,13.40
2018,06,17,03,24,13.40
2018,06,17,03,25,13.40
2018,06,17,03,26,13.40
2018,06,17,03,27,13.40
2018,06,17,03,28,13.40
2018,06,17,03,29,13.30
2018,06,17,03,30,13.30
2018,06,17,03,31,13.30
2018,06,17,03,32,13.30
2018,06,17,03,33,13.30
2018,06,17,03,34,13.30
2018,06,17,03,35,13.30
2018,06,17,03,36,13.30
2018,06,17,03,37,13.30
2018,06,17,03,38,13.20
2018,06,17,03,39,13.20
2018,06,17,03,40,13.20
2018,06,17,03,41,13.20
2018,06,17,03,42,13.20
2018,06,17,03,43,13.10
2018,06,17,03,44,13.10
2018,06,17,03,45,13.10
2018,06,17,03,46,13.10
2018,06,17,03,47,13.10
2018,06,17,03,48,13.00
2018,06,17,03,49,13.00
2018,06,17,03,50,13.00
2018,06,17,03,51,13.00
2018,06,17,03,52,12.90
2018,06,17,03,53,12.90
2018,06,17,03,54,12.90
2018,06,17,03,55,12.90
2018,06,17,03,56,12.80
2018,06,17,03,57,12.80
2018,06,17,03,58,12.80
2018,06,17,03,59,12.80
2018,06,17,04,00,12.80
2018,06,17,04,01,12.70
2018,06,17,04,02,12.70
2018,06,17,04,03,12.70
2018,06,17,04,04,12.70
2018,06,17,04,05,12.70
2018,06,17,04,06,12.70
2018,06,17,04,07,12.70
2018,06,17,04,08,12.70
2018,06,17,04,09,12.70
2018,06,17,04,10,12.70
2018,06,17,04,11,12.70
2018,06,17,04,12,12.70
2018,06,17,04,13,12.70
2018,06,17,04,14,12.70
2018,06,17,04,15,12.70
2018,06,17,04,16,12.60
2018,06,17,04,17,12.60
2018,06,17,04,18,12.60
2018,06,17,04,19,12.60
2018,06,17,04,20,12.60
2018,06,17,04,21,12.60
2018,06,17,04,22,12.50
2018,06,17,04,23,12.50
2018,06,17,04,24,12.50
2018,06,17,04,25,12.50
2018,06,17,04,26,12.40
2018,06,17,04,27,12.40
2018,06,17,04,28,12.40
2018,06,17,04,29,12.40
2018,06,17,04,30,12.40
2018,06,17,04,31,12.40
2018,06,17,04,32,12.40
2018,06,17,04,33,12.40
2018,06,17,04,34,12.40
2018,06,17,04,35,12.40
2018,06,17,04,36,12.40
2018,06,17,04,37,12.40
2018,06,17,04,38,12.40
2018,06,17,04,39,12.30
2018,06,17,04,40,12.30
2018,06,17,04,41,12.30
2018,06,17,04,42,12.30
2018,06,17,04,43,12.30
2018,06,17,04,44,12.20
2018,06,17,04,45,12.20
2018,06,17,04,46,12.20
2018,06,17,04,47,12.10
2018,06,17,04,48,12.10
2018,06,17,04,49,12.10
2018,06,17,04,50,12.00
2018,06,17,04,51,12.00
2018,06,17,04,52,12.00
2018,06,17,04,53,11.90
2018,06,17,04,54,11.90
2018,06,17,04,55,11.90
2018,06,17,04,56,11.90
2018,06,17,04,57,11.90
2018,06,17,04,58,11.80
2018,06,17,04,59,11.80
2018,06,17,05,00,11.80
2018,06,17,05,01,11.80
2018,06,17,05,02,11.80
2018,06,17,05,03,11.80
2018,06,17,05,04,11.80
2018,06,17,05,05,11.80
2018,06,17,05,06,11.80
2018,06,17,05,07,11.70
2018,06,17,05,08,11.70
2018,06,17,05,09,11.70
2018,06,17,05,10,11.70
2018,06,17,05,11,11.60
2018,06,17,05,12,11.60
2018,06,17,05,13,11.60
2018,06,17,05,14,11.60
2018,06,17,05,15,11.60
2018,06,17,05,16,11.60
2018,06,17,05,17,11.60
2018,06,17,05,18,11.60
2018,06,17,05,19,11.60
2018,06,17,05,20,11.60
2018,06,17,05,21,11.60
2018,06,17,05,22,11.50
2018,06,17,05,23,11.50
2018,06,17,05,24,11.50
2018,06,17,05,25,11.40
2018,06,17,05,26,11.40
2018,06,17,05,27,11.40
2018,06,17,05,28,11.40
2018,06,17,05,29,11.40
2018,06,17,05,30,11.30
2018,06,17,05,31,11.30
2018,06,17,05,32,11.30
2018,06,17,05,33,11.30
2018,06,17,05,34,11.30
2018,06,17,05,35,11.30
2018,06,17,05,36,11.30
2018,06,17,05,37,11.30
2018,06,17,05,38,11.30
2018,06,17,05,39,11.30
2018,06,17,05,40,11.30
2018,06,17,05,41,11.30
2018,06,17,05,42,11.30
2018,06,17,05,43,11.30
2018,06,17,05,44,11.30
2018,06,17,05,45,11.30
2018,06,17,05,46,11.30
2018,06,17,05,47,11.20
2018,06,17,05,48,11.20
2018,06,17,05,49,11.20
2018,06,17,05,50,11.20
2018,06,17,05,51,11.30
2018,06,17,05,52,11.30
2018,06,17,05,53,11.30
2018,06,17,05,54,11.30
2018,06,17,05,55,11.20
2018,06,17,05,56,11.20
2018,06,17,05,57,11.20
2018,06,17,05,58,11.20
2018,06,17,05,59,11.20
2018,06,17,06,00,11.20
2018,06,17,06,01,11.20
2018,06,17,06,02,11.20
2018,06,17,06,03,11.20
2018,06,17,06,04,11.20
2018,06,17,06,05,11.20
2018,06,17,06,06,11.20
2018,06,17,06,07,11.20
2018,06,17,06,08,11.20
2018,06,17,06,09,11.20
2018,06,17,06,10,11.20
2018,06,17,06,11,11.20
2018,06,17,06,12,11.30
2018,06,17,06,13,11.30
2018,06,17,06,14,11.30
2018,06,17,06,15,11.30
2018,06,17,06,16,11.30
2018,06,17,06,17,11.30
2018,06,17,06,18,11.40
2018,06,17,06,19,11.40
2018,06,17,06,20,11.40
2018,06,17,06,21,11.40
2018,06,17,06,22,11.40
2018,06,17,06,23,11.40
2018,06,17,06,24,11.40
2018,06,17,06,25,11.50
2018,06,17,06,26,11.50
2018,06,17,06,27,11.50
2018,06,17,06,28,11.60
2018,06,17,06,29,11.60
2018,06,17,06,30,11.60
2018,06,17,06,31,11.70
2018,06,17,06,32,11.70
2018,06,17,06,33,11.80
2018,06,17,06,34,11.80
2018,06,17,06,35,11.90
2018,06,17,06,36,12.00
2018,06,17,06,37,12.10
2018,06,17,06,38,12.20
2018,06,17,06,39,12.40
2018,06,17,06,40,12.40
2018,06,17,06,41,12.50
2018,06,17,06,42,12.50
2018,06,17,06,43,12.60
2018,06,17,06,44,12.70
2018,06,17,06,45,12.90
2018,06,17,06,46,13.10
2018,06,17,06,47,13.20
2018,06,17,06,48,13.30
2018,06,17,06,49,13.40
2018,06,17,06,50,13.60
2018,06,17,06,51,13.70
2018,06,17,06,52,13.90
2018,06,17,06,53,14.10
2018,06,17,06,54,14.20
2018,06,17,06,55,14.40
2018,06,17,06,56,14.50
2018,06,17,06,57,14.70
2018,06,17,06,58,14.80
2018,06,17,06,59,14.90
2018,06,17,07,00,15.00
2018,06,17,07,01,15.10
2018,06,17,07,02,15.30
2018,06,17,07,03,15.30
2018,06,17,07,04,15.40
2018,06,17,07,05,15.50
2018,06,17,07,06,15.50
2018,06,17,07,07,15.60
2018,06,17,07,08,15.70
2018,06,17,07,09,15.70
2018,06,17,07,10,15.80
2018,06,17,07,11,15.80
2018,06,17,07,12,15.90
2018,06,17,07,13,16.00
2018,06,17,07,14,16.10
2018,06,17,07,15,16.10
2018,06,17,07,16,16.20
2018,06,17,07,17,16.30
2018,06,17,07,18,16.40
2018,06,17,07,19,16.50
2018,06,17,07,20,16.60
2018,06,17,07,21,16.80
2018,06,17,07,22,16.80
2018,06,17,07,23,16.90
2018,06,17,07,24,17.00
2018,06,17,07,25,17.10
2018,06,17,07,26,17.20
2018,06,17,07,27,17.40
2018,06,17,07,28,17.50
2018,06,17,07,29,17.50
2018,06,17,07,30,17.60
2018,06,17,07,31,17.60
2018,06,17,07,32,17.60
2018,06,17,07,33,17.60
2018,06,17,07,34,17.70
2018,06,17,07,35,17.70
2018,06,17,07,36,17.70
2018,06,17,07,37,17.70
2018,06,17,07,38,17.80
2018,06,17,07,39,17.90
2018,06,17,07,40,18.10
2018,06,17,07,41,18.20
2018,06,17,07,42,18.40
2018,06,17,07,43,18.50
2018,06,17,07,44,18.60
2018,06,17,07,45,18.60
2018,06,17,07,46,18.70
2018,06,17,07,47,18.70
2018,06,17,07,48,18.70
2018,06,17,07,49,18.70
2018,06,17,07,50,18.80
2018,06,17,07,51,18.80
2018,06,17,07,52,18.80
2018,06,17,07,53,18.90
2018,06,17,07,54,19.00
2018,06,17,07,55,19.10
2018,06,17,07,56,19.20
2018,06,17,07,57,19.30
2018,06,17,07,58,19.40
2018,06,17,07,59,19.50
2018,06,17,08,00,19.60
2018,06,17,08,01,19.80
2018,06,17,08,02,19.80
2018,06,17,08,03,19.90
2018,06,17,08,04,20.10
2018,06,17,08,05,20.20
2018,06,17,08,06,20.30
2018,06,17,08,07,20.40
2018,06,17,08,08,20.60
2018,06,17,08,09,20.70
2018,06,17,08,10,20.80
2018,06,17,08,11,20.80
2018,06,17,08,12,20.80
2018,06,17,08,13,20.80
2018,06,17,08,14,20.80
2018,06,17,08,15,20.80
2018,06,17,08,16,20.90
2018,06,17,08,17,21.00
2018,06,17,08,18,21.10
2018,06,17,08,19,21.10
2018,06,17,08,20,21.20
2018,06,17,08,21,21.30
2018,06,17,08,22,21.40
2018,06,17,08,23,21.50
2018,06,17,08,24,21.50
2018,06,17,08,25,21.60
2018,06,17,08,26,21.70
2018,06,17,08,27,21.80
2018,06,17,08,28,21.90
2018,06,17,08,29,21.90
2018,06,17,08,30,22.00
2018,06,17,08,31,22.00
2018,06,17,08,32,22.00
2018,06,17,08,33,22.10
2018,06,17,08,34,22.10
2018,06,17,08,35,22.10
2018,06,17,08,36,22.10
2018,06,17,08,37,22.20
2018,06,17,08,38,22.10
2018,06,17,08,39,22.10
2018,06,17,08,40,22.20
2018,06,17,08,41,22.20
2018,06,17,08,42,22.20
2018,06,17,08,43,22.30
2018,06,17,08,44,22.30
2018,06,17,08,45,22.30
2018,06,17,08,46,22.40
2018,06,17,08,47,22.50
2018,06,17,08,48,22.60
2018,06,17,08,49,22.70
2018,06,17,08,50,22.70
2018,06,17,08,51,22.60
2018,06,17,08,52,22.70
2018,06,17,08,53,22.80
2018,06,17,08,54,22.80
2018,06,17,08,55,22.90
2018,06,17,08,56,23.00
2018,06,17,08,57,23.00
2018,06,17,08,58,23.00
2018,06,17,08,59,23.10
2018,06,17,09,00,23.10
2018,06,17,09,01,23.10
2018,06,17,09,02,23.20
2018,06,17,09,03,23.40
2018,06,17,09,04,23.40
2018,06,17,09,05,23.50
2018,06,17,09,06,23.60
2018,06,17,09,07,23.60
2018,06,17,09,08,23.70
2018,06,17,09,09,23.70
2018,06,17,09,10,23.70
2018,06,17,09,11,23.70
2018,06,17,09,12,23.60
2018,06,17,09,13,23.60
2018,06,17,09,14,23.60
2018,06,17,09,15,23.60
2018,06,17,09,16,23.70
2018,06,17,09,17,23.60
2018,06,17,09,18,23.60
2018,06,17,09,19,23.60
2018,06,17,09,20,23.60
2018,06,17,09,21,23.70
2018,06,17,09,22,23.80
2018,06,17,09,23,23.90
2018,06,17,09,24,23.90
2018,06,17,09,25,24.00
2018,06,17,09,26,24.10
2018,06,17,09,27,24.10
2018,06,17,09,28,24.10
2018,06,17,09,29,24.00
2018,06,17,09,30,24.00
2018,06,17,09,31,24.00
2018,06,17,09,32,24.10
2018,06,17,09,33,24.20
2018,06,17,09,34,24.40
2018,06,17,09,35,24.40
2018,06,17,09,36,24.30
2018,06,17,09,37,24.30
2018,06,17,09,38,24.10
2018,06,17,09,39,24.00
2018,06,17,09,40,24.00
2018,06,17,09,41,23.90
2018,06,17,09,42,23.90
2018,06,17,09,43,23.90
2018,06,17,09,44,23.90
2018,06,17,09,45,24.00
2018,06,17,09,46,24.00
2018,06,17,09,47,24.00
2018,06,17,09,48,24.10
2018,06,17,09,49,24.20
2018,06,17,09,50,24.40
2018,06,17,09,51,24.50
2018,06,17,09,52,24.70
2018,06,17,09,53,24.80
2018,06,17,09,54,24.80
2018,06,17,09,55,24.80
2018,06,17,09,56,24.80
2018,06,17,09,57,24.90
2018,06,17,09,58,24.90
2018,06,17,09,59,24.90
2018,06,17,10,00,24.90
2018,06,17,10,01,24.90
2018,06,17,10,02,24.90
2018,06,17,10,03,24.90
2018,06,17,10,04,24.80
2018,06,17,10,05,24.70
2018,06,17,10,06,24.60
2018,06,17,10,07,24.30
2018,06,17,10,08,24.20
2018,06,17,10,09,24.00
2018,06,17,10,10,24.00
2018,06,17,10,11,24.10
2018,06,17,10,12,24.10
2018,06,17,10,13,24.30
2018,06,17,10,14,24.40
2018,06,17,10,15,24.50
2018,06,17,10,16,24.60
2018,06,17,10,17,24.60
2018,06,17,10,18,24.70
2018,06,17,10,19,24.70
2018,06,17,10,20,24.60
2018,06,17,10,21,24.50
2018,06,17,10,22,24.50
2018,06,17,10,23,24.50
2018,06,17,10,24,24.40
2018,06,17,10,25,24.40
2018,06,17,10,26,24.50
2018,06,17,10,27,24.60
2018,06,17,10,28,24.70
2018,06,17,10,29,24.70
2018,06,17,10,30,24.80
2018,06,17,10,31,24.80
2018,06,17,10,32,24.90
2018,06,17,10,33,24.90
2018,06,17,10,34,24.90
2018,06,17,10,35,24.90
2018,06,17,10,36,25.00
2018,06,17,10,37,24.90
2018,06,17,10,38,25.00
2018,06,17,10,39,25.00
2018,06,17,10,40,24.90
2018,06,17,10,41,24.80
2018,06,17,10,42,24.80
2018,06,17,10,43,24.80
2018,06,17,10,44,24.80
2018,06,17,10,45,24.90
2018,06,17,10,46,24.90
2018,06,17,10,47,24.90
2018,06,17,10,48,24.80
2018,06,17,10,49,24.80
2018,06,17,10,50,24.80
2018,06,17,10,51,24.80
2018,06,17,10,52,24.70
2018,06,17,10,53,24.70
2018,06,17,10,54,24.70
2018,06,17,10,55,24.70
2018,06,17,10,56,24.70
2018,06,17,10,57,24.80
2018,06,17,10,58,24.80
2018,06,17,10,59,24.80
2018,06,17,11,00,24.80
2018,06,17,11,01,24.80
2018,06,17,11,02,24.80
2018,06,17,11,03,24.70
2018,06,17,11,04,24.70
2018,06,17,11,05,24.70
2018,06,17,11,06,24.70
2018,06,17,11,07,24.70
2018,06,17,11,08,24.70
2018,06,17,11,09,24.70
2018,06,17,11,10,24.70
2018,06,17,11,11,24.70
2018,06,17,11,12,24.60
2018,06,17,11,13,24.70
2018,06,17,11,14,24.80
2018,06,17,11,15,24.90
2018,06,17,11,16,24.90
2018,06,17,11,17,24.90
2018,06,17,11,18,24.80
2018,06,17,11,19,24.70
2018,06,17,11,20,24.80
2018,06,17,11,21,24.80
2018,06,17,11,22,24.80
2018,06,17,11,23,24.80
2018,06,17,11,24,24.80
2018,06,17,11,25,24.80
2018,06,17,11,26,24.80
2018,06,17,11,27,24.90
2018,06,17,11,28,25.00
2018,06,17,11,29,25.00
2018,06,17,11,30,25.00
2018,06,17,11,31,25.00
2018,06,17,11,32,25.10
2018,06,17,11,33,25.10
2018,06,17,11,34,25.20
2018,06,17,11,35,25.10
2018,06,17,11,36,25.10
2018,06,17,11,37,25.10
2018,06,17,11,38,25.10
2018,06,17,11,39,25.10
2018,06,17,11,40,25.10
2018,06,17,11,41,25.10
2018,06,17,11,42,25.10
2018,06,17,11,43,25.10
2018,06,17,11,44,25.10
2018,06,17,11,45,25.20
2018,06,17,11,46,25.40
2018,06,17,11,47,25.50
2018,06,17,11,48,25.50
2018,06,17,11,49,25.50
2018,06,17,11,50,25.40
2018,06,17,11,51,25.40
2018,06,17,11,52,25.40
2018,06,17,11,53,25.30
2018,06,17,11,54,25.20
2018,06,17,11,55,25.30
2018,06,17,11,56,25.40
2018,06,17,11,57,25.40
2018,06,17,11,58,25.30
2018,06,17,11,59,25.30
2018,06,17,12,00,25.30
2018,06,17,12,01,25.30
2018,06,17,12,02,25.40
2018,06,17,12,03,25.40
2018,06,17,12,04,25.40
2018,06,17,12,05,25.40
2018,06,17,12,06,25.50
2018,06,17,12,07,25.60
2018,06,17,12,08,25.70
2018,06,17,12,09,25.70
2018,06,17,12,10,25.70
2018,06,17,12,11,25.80
2018,06,17,12,12,25.80
2018,06,17,12,13,25.80
2018,06,17,12,14,25.80
2018,06,17,12,15,25.90
2018,06,17,12,16,25.90
2018,06,17,12,17,25.80
2018,06,17,12,18,25.80
2018,06,17,12,19,25.80
2018,06,17,12,20,25.70
2018,06,17,12,21,25.70
2018,06,17,12,22,25.60
2018,06,17,12,23,25.70
2018,06,17,12,24,25.80
2018,06,17,12,25,25.80
2018,06,17,12,26,25.80
2018,06,17,12,27,25.90
2018,06,17,12,28,25.90
2018,06,17,12,29,25.90
2018,06,17,12,30,25.80
2018,06,17,12,31,25.80
2018,06,17,12,32,25.90
2018,06,17,12,33,25.90
2018,06,17,12,34,26.00
2018,06,17,12,35,26.00
2018,06,17,12,36,26.00
2018,06,17,12,37,26.00
2018,06,17,12,38,26.10
2018,06,17,12,39,26.10
2018,06,17,12,40,26.00
2018,06,17,12,41,25.90
2018,06,17,12,42,25.90
2018,06,17,12,43,25.90
2018,06,17,12,44,26.00
2018,06,17,12,45,26.10
2018,06,17,12,46,26.20
2018,06,17,12,47,26.20
2018,06,17,12,48,26.10
2018,06,17,12,49,26.00
2018,06,17,12,50,26.00
2018,06,17,12,51,26.10
2018,06,17,12,52,26.20
2018,06,17,12,53,26.30
2018,06,17,12,54,26.40
2018,06,17,12,55,26.50
2018,06,17,12,56,26.70
2018,06,17,12,57,26.80
2018,06,17,12,58,26.80
2018,06,17,12,59,26.90
2018,06,17,13,00,26.90
2018,06,17,13,01,26.90
2018,06,17,13,02,26.90
2018,06,17,13,03,26.90
2018,06,17,13,04,27.00
2018,06,17,13,05,27.10
2018,06,17,13,06,27.10
2018,06,17,13,07,27.00
2018,06,17,13,08,26.90
2018,06,17,13,09,26.90
2018,06,17,13,10,26.90
2018,06,17,13,11,27.00
2018,06,17,13,12,27.10
2018,06,17,13,13,27.20
2018,06,17,13,14,27.20
2018,06,17,13,15,27.10
2018,06,17,13,16,27.10
2018,06,17,13,17,27.10
2018,06,17,13,18,27.20
2018,06,17,13,19,27.30
2018,06,17,13,20,27.20
2018,06,17,13,21,27.20
2018,06,17,13,22,27.20
2018,06,17,13,23,27.30
2018,06,17,13,24,27.40
2018,06,17,13,25,27.60
2018,06,17,13,26,27.70
2018,06,17,13,27,27.80
2018,06,17,13,28,28.00
2018,06,17,13,29,28.20
2018,06,17,13,30,28.30
2018,06,17,13,31,28.30
2018,06,17,13,32,28.40
2018,06,17,13,33,28.50
2018,06,17,13,34,28.60
2018,06,17,13,35,28.70
2018,06,17,13,36,28.60
2018,06,17,13,37,28.50
2018,06,17,13,38,28.50
2018,06,17,13,39,28.50
2018,06,17,13,40,28.60
2018,06,17,13,41,28.70
2018,06,17,13,42,29.00
2018,06,17,13,43,29.20
2018,06,17,13,44,29.30
2018,06,17,13,45,29.30
2018,06,17,13,46,29.30
2018,06,17,13,47,29.30
2018,06,17,13,48,29.30
2018,06,17,13,49,29.30
2018,06,17,13,50,29.30
2018,06,17,13,51,29.30
2018,06,17,13,52,29.40
2018,06,17,13,53,29.40
2018,06,17,13,54,29.40
2018,06,17,13,55,29.30
2018,06,17,13,56,29.40
2018,06,17,13,57,29.40
2018,06,17,13,58,29.30
2018,06,17,13,59,29.20
2018,06,17,14,00,29.20
2018,06,17,14,01,29.10
2018,06,17,14,02,29.10
2018,06,17,14,03,29.10
2018,06,17,14,04,29.20
2018,06,17,14,05,29.20
2018,06,17,14,06,29.30
2018,06,17,14,07,29.40
2018,06,17,14,08,29.60
2018,06,17,14,09,29.60
2018,06,17,14,10,29.70
2018,06,17,14,11,29.60
2018,06,17,14,12,29.60
2018,06,17,14,13,29.60
2018,06,17,14,14,29.60
2018,06,17,14,15,29.50
2018,06,17,14,16,29.40
2018,06,17,14,17,29.50
2018,06,17,14,18,29.50
2018,06,17,14,19,29.70
2018,06,17,14,20,29.80
2018,06,17,14,21,30.00
2018,06,17,14,22,30.00
2018,06,17,14,23,30.10
2018,06,17,14,24,30.10
2018,06,17,14,25,30.00
2018,06,17,14,26,29.90
2018,06,17,14,27,30.00
2018,06,17,14,28,29.90
2018,06,17,14,29,29.90
2018,06,17,14,30,29.90
2018,06,17,14,31,30.00
2018,06,17,14,32,30.00
2018,06,17,14,33,29.90
2018,06,17,14,34,29.90
2018,06,17,14,35,29.90
2018,06,17,14,36,29.90
2018,06,17,14,37,29.90
2018,06,17,14,38,29.90
2018,06,17,14,39,30.10
2018,06,17,14,40,30.10
2018,06,17,14,41,30.20
2018,06,17,14,42,30.20
2018,06,17,14,43,30.30
2018,06,17,14,44,30.40
2018,06,17,14,45,30.50
2018,06,17,14,46,30.50
2018,06,17,14,47,30.50
2018,06,17,14,48,30.40
2018,06,17,14,49,30.30
2018,06,17,14,50,30.20
2018,06,17,14,51,30.20
2018,06,17,14,52,30.10
2018,06,17,14,53,30.10
2018,06,17,14,54,30.10
2018,06,17,14,55,30.00
2018,06,17,14,56,30.00
2018,06,17,14,57,30.10
2018,06,17,14,58,30.20
2018,06,17,14,59,30.30
2018,06,17,15,00,30.30
2018,06,17,15,01,30.40
2018,06,17,15,02,30.50
2018,06,17,15,03,30.60
2018,06,17,15,04,30.60
2018,06,17,15,05,30.60
2018,06,17,15,06,30.60
2018,06,17,15,07,30.60
2018,06,17,15,08,30.70
2018,06,17,15,09,30.70
2018,06,17,15,10,30.70
2018,06,17,15,11,30.60
2018,06,17,15,12,30.60
2018,06,17,15,13,30.50
2018,06,17,15,14,30.40
2018,06,17,15,15,30.20
2018,06,17,15,16,30.10
2018,06,17,15,17,29.90
2018,06,17,15,18,29.90
2018,06,17,15,19,29.80
2018,06,17,15,20,29.70
2018,06,17,15,21,29.60
2018,06,17,15,22,29.40
2018,06,17,15,23,29.30
2018,06,17,15,24,29.30
2018,06,17,15,25,29.30
2018,06,17,15,26,29.30
2018,06,17,15,27,29.30
2018,06,17,15,28,29.30
2018,06,17,15,29,29.20
2018,06,17,15,30,29.20
2018,06,17,15,31,29.10
2018,06,17,15,32,29.20
2018,06,17,15,33,29.30
2018,06,17,15,34,29.40
2018,06,17,15,35,29.40
2018,06,17,15,36,29.40
2018,06,17,15,37,29.40
2018,06,17,15,38,29.30
2018,06,17,15,39,29.40
2018,06,17,15,40,29.60
2018,06,17,15,41,29.60
2018,06,17,15,42,29.60
2018,06,17,15,43,29.60
2018,06,17,15,44,29.50
2018,06,17,15,45,29.40
2018,06,17,15,46,29.40
2018,06,17,15,47,29.30
2018,06,17,15,48,29.30
2018,06,17,15,49,29.30
2018,06,17,15,50,29.30
2018,06,17,15,51,29.30
2018,06,17,15,52,29.30
2018,06,17,15,53,29.20
2018,06,17,15,54,29.20
2018,06,17,15,55,29.10
2018,06,17,15,56,29.10
2018,06,17,15,57,29.10
2018,06,17,15,58,29.20
2018,06,17,15,59,29.20
2018,06,17,16,00,29.20
2018,06,17,16,01,29.30
2018,06,17,16,02,29.40
2018,06,17,16,03,29.50
2018,06,17,16,04,29.60
2018,06,17,16,05,29.80
2018,06,17,16,06,29.90
2018,06,17,16,07,30.00
2018,06,17,16,08,30.00
2018,06,17,16,09,30.00
2018,06,17,16,10,29.90
2018,06,17,16,11,29.90
2018,06,17,16,12,30.00
2018,06,17,16,13,30.10
2018,06,17,16,14,30.30
2018,06,17,16,15,30.40
2018,06,17,16,16,30.40
2018,06,17,16,17,30.30
2018,06,17,16,18,30.20
2018,06,17,16,19,30.20
2018,06,17,16,20,30.20
2018,06,17,16,21,30.30
2018,06,17,16,22,30.30
2018,06,17,16,23,30.30
2018,06,17,16,24,30.30
2018,06,17,16,25,30.30
2018,06,17,16,26,30.30
2018,06,17,16,27,30.30
2018,06,17,16,28,30.40
2018,06,17,16,29,30.50
2018,06,17,16,30,30.50
2018,06,17,16,31,30.60
2018,06,17,16,32,30.70
2018,06,17,16,33,30.60
2018,06,17,16,34,30.70
2018,06,17,16,35,30.70
2018,06,17,16,36,30.70
2018,06,17,16,37,30.80
2018,06,17,16,38,30.90
2018,06,17,16,39,31.00
2018,06,17,16,40,31.10
2018,06,17,16,41,31.20
2018,06,17,16,42,31.10
2018,06,17,16,43,31.20
2018,06,17,16,44,31.30
2018,06,17,16,45,31.30
2018,06,17,16,46,31.40
2018,06,17,16,47,31.50
2018,06,17,16,48,31.60
2018,06,17,16,49,31.70
2018,06,17,16,50,31.70
2018,06,17,16,51,31.70
2018,06,17,16,52,31.70
2018,06,17,16,53,31.70
2018,06,17,16,54,31.70
2018,06,17,16,55,31.70
2018,06,17,16,56,31.70
2018,06,17,16,57,31.70
2018,06,17,16,58,31.70
2018,06,17,16,59,31.60
2018,06,17,17,00,31.40
2018,06,17,17,01,31.30
2018,06,17,17,02,31.30
2018,06,17,17,03,31.30
2018,06,17,17,04,31.30
2018,06,17,17,05,31.40
2018,06,17,17,06,31.40
2018,06,17,17,07,31.50
2018,06,17,17,08,31.50
2018,06,17,17,09,31.40
2018,06,17,17,10,31.30
2018,06,17,17,11,31.30
2018,06,17,17,12,31.20
2018,06,17,17,13,31.10
2018,06,17,17,14,30.90
2018,06,17,17,15,30.80
2018,06,17,17,16,30.60
2018,06,17,17,17,30.50
2018,06,17,17,18,30.40
2018,06,17,17,19,30.40